timestamp,wind_dir_avg,wind_spd_avg,wind_spd_max_dir,wind_spd_gust,battery_voltage,lat,long
2021-11-30 00:04:01+00:00,63.0,3.98,76.0,5.79,12.57,47.59359,-54.27349
2021-11-30 00:14:01+00:00,82.0,3.11,80.0,5.37,12.57,47.59359,-54.27349
2021-11-30 00:24:01+00:00,120.0,4.61,109.0,6.92,12.57,47.59359,-54.27349
2021-11-30 00:34:01+00:00,111.0,3.04,114.0,4.02,12.57,47.59359,-54.27349
2021-11-30 00:44:01+00:00,131.0,3.45,146.0,4.93,12.57,47.59359,-54.27349
2021-11-30 00:54:01+00:00,123.0,3.96,127.0,5.09,12.57,47.59359,-54.27349
2021-11-30 01:04:01+00:00,121.0,4.15,128.0,6.17,12.57,47.59359,-54.27349
2021-11-30 01:14:01+00:00,105.0,2.71,111.0,4.45,12.57,47.59359,-54.27349
2021-11-30 01:24:01+00:00,114.0,3.12,130.0,6.03,12.57,47.59359,-54.27349
2021-11-30 01:34:01+00:00,106.0,3.59,123.0,7.02,12.57,47.59359,-54.27349
2021-11-30 01:44:01+00:00,98.0,4.03,74.0,6.71,12.57,47.59359,-54.27349
2021-11-30 01:54:01+00:00,113.0,3.42,125.0,6.04,12.57,47.59359,-54.27349
2021-11-30 02:04:01+00:00,125.0,4.48,121.0,5.48,12.57,47.59359,-54.27349
2021-11-30 02:14:00+00:00,133.0,4.51,131.0,5.36,12.57,47.59359,-54.27349
2021-11-30 02:24:00+00:00,131.0,7.44,125.0,11.64,12.57,47.59359,-54.27349
2021-11-30 02:34:00+00:00,139.0,10.84,132.0,12.66,12.57,47.59359,-54.27349
2021-11-30 02:44:00+00:00,135.0,12.24,132.0,13.78,12.57,47.59359,-54.27349
2021-11-30 02:54:00+00:00,134.0,13.62,136.0,15.05,12.57,47.59359,-54.27349
2021-11-30 03:04:00+00:00,134.0,13.56,135.0,14.74,12.57,47.59359,-54.27349
2021-11-30 03:14:00+00:00,140.0,14.56,142.0,16.52,12.49,47.59359,-54.27349
2021-11-30 03:24:00+00:00,138.0,13.99,138.0,15.63,12.49,47.59359,-54.27349
2021-11-30 03:34:00+00:00,145.0,12.71,146.0,15.22,12.49,47.59359,-54.27349
2021-11-30 03:44:00+00:00,150.0,14.21,145.0,17.68,12.49,47.59359,-54.27349
2021-11-30 03:54:00+00:00,151.0,15.8,145.0,19.08,12.49,47.59359,-54.27349
2021-11-30 04:04:00+00:00,156.0,13.05,150.0,16.16,12.49,47.59359,-54.27349
2021-11-30 04:14:01+00:00,156.0,14.69,155.0,16.92,12.49,47.59359,-54.27349
2021-11-30 04:24:01+00:00,159.0,13.61,144.0,16.89,12.49,47.59359,-54.27349
2021-11-30 04:34:01+00:00,155.0,16.28,149.0,18.7,12.49,47.59359,-54.27349
2021-11-30 04:44:01+00:00,156.0,14.41,147.0,18.11,12.49,47.59359,-54.27349
2021-11-30 04:54:01+00:00,152.0,14.04,144.0,16.49,12.49,47.59359,-54.27349
2021-11-30 05:04:01+00:00,148.0,14.61,144.0,16.6,12.49,47.59359,-54.27349
2021-11-30 05:14:00+00:00,156.0,14.07,145.0,18.12,12.49,47.59359,-54.27349
2021-11-30 05:24:00+00:00,152.0,12.19,138.0,14.78,12.49,47.59359,-54.27349
2021-11-30 05:34:00+00:00,160.0,12.57,166.0,14.81,12.49,47.59359,-54.27349
2021-11-30 05:44:00+00:00,155.0,14.43,168.0,17.51,12.49,47.59359,-54.27349
2021-11-30 05:54:00+00:00,142.0,13.84,138.0,15.65,12.49,47.59359,-54.27349
2021-11-30 06:04:00+00:00,148.0,12.74,138.0,14.95,12.49,47.59359,-54.27349
2021-11-30 06:14:00+00:00,158.0,11.03,140.0,12.57,12.49,47.59359,-54.27349
2021-11-30 06:24:00+00:00,153.0,10.55,140.0,14.58,12.49,47.59359,-54.27349
2021-11-30 06:34:00+00:00,150.0,12.39,140.0,14.98,12.49,47.59359,-54.27349
2021-11-30 06:44:00+00:00,153.0,13.95,144.0,17.37,12.49,47.59359,-54.27349
2021-11-30 06:54:00+00:00,152.0,13.63,143.0,15.92,12.49,47.59359,-54.27349
2021-11-30 07:04:00+00:00,143.0,15.96,147.0,18.9,12.49,47.59359,-54.27349
2021-11-30 07:14:00+00:00,154.0,15.42,158.0,19.04,12.49,47.59359,-54.27349
2021-11-30 07:24:00+00:00,155.0,14.9,145.0,17.31,12.49,47.59359,-54.27349
2021-11-30 07:34:00+00:00,160.0,15.35,149.0,18.62,12.49,47.59359,-54.27349
2021-11-30 07:44:00+00:00,169.0,16.59,160.0,19.47,12.49,47.59359,-54.27349
2021-11-30 07:54:00+00:00,170.0,13.08,178.0,15.27,12.49,47.59359,-54.27349
2021-11-30 08:04:00+00:00,172.0,12.79,175.0,15.18,12.49,47.59359,-54.27349
2021-11-30 08:14:00+00:00,169.0,12.69,167.0,16.03,12.49,47.59359,-54.27349
2021-11-30 08:24:00+00:00,174.0,14.9,174.0,16.81,12.49,47.59359,-54.27349
2021-11-30 08:34:00+00:00,170.0,17.48,170.0,21.97,12.49,47.59359,-54.27349
2021-11-30 08:44:00+00:00,173.0,16.2,170.0,19.82,12.49,47.59359,-54.27349
2021-11-30 08:54:00+00:00,173.0,17.2,174.0,20.72,12.49,47.59359,-54.27349
2021-11-30 09:04:00+00:00,175.0,16.78,164.0,20.02,12.49,47.59359,-54.27349
2021-11-30 09:14:00+00:00,174.0,17.25,176.0,21.68,12.41,47.59359,-54.27349
2021-11-30 09:24:00+00:00,174.0,14.51,174.0,16.6,12.41,47.59359,-54.27349
2021-11-30 09:34:00+00:00,173.0,16.09,171.0,20.66,12.41,47.59359,-54.27349
2021-11-30 09:44:00+00:00,170.0,16.37,169.0,20.56,12.41,47.59359,-54.27349
2021-11-30 09:54:00+00:00,172.0,16.24,175.0,20.03,12.41,47.59359,-54.27349
2021-11-30 10:04:00+00:00,172.0,15.57,163.0,18.29,12.41,47.59359,-54.27349
2021-11-30 10:14:01+00:00,171.0,15.32,174.0,18.34,12.41,47.59359,-54.27349
2021-11-30 10:24:01+00:00,170.0,15.75,174.0,18.81,12.41,47.59359,-54.27349
2021-11-30 10:34:01+00:00,171.0,15.09,167.0,18.54,12.41,47.59359,-54.27349
2021-11-30 10:44:01+00:00,173.0,15.07,166.0,17.88,12.41,47.59359,-54.27349
2021-11-30 10:54:01+00:00,172.0,14.62,176.0,17.1,12.41,47.59359,-54.27349
2021-11-30 11:04:01+00:00,166.0,14.19,176.0,17.88,12.41,47.59359,-54.27349
2021-11-30 11:14:01+00:00,173.0,13.47,173.0,15.84,12.41,47.59359,-54.27349
2021-11-30 11:24:01+00:00,173.0,13.38,176.0,16.71,12.41,47.59359,-54.27349
2021-11-30 11:34:01+00:00,176.0,14.99,177.0,17.9,12.41,47.59359,-54.27349
2021-11-30 11:44:01+00:00,177.0,17.26,183.0,19.87,12.41,47.59359,-54.27349
2021-11-30 11:54:01+00:00,177.0,19.16,178.0,23.91,12.41,47.59359,-54.27349
2021-11-30 12:04:01+00:00,177.0,20.55,160.0,24.99,12.41,47.59359,-54.27349
2021-11-30 12:14:01+00:00,178.0,22.51,176.0,31.1,12.41,47.59359,-54.27349
2021-11-30 12:24:01+00:00,178.0,20.71,176.0,25.83,12.41,47.59359,-54.27349
2021-11-30 12:34:01+00:00,178.0,20.1,178.0,24.73,12.41,47.59359,-54.27349
2021-11-30 12:44:01+00:00,178.0,19.25,179.0,23.93,12.41,47.59359,-54.27349
2021-11-30 12:54:01+00:00,178.0,16.26,184.0,20.17,12.41,47.59359,-54.27349
2021-11-30 13:04:01+00:00,175.0,15.95,179.0,18.35,12.41,47.59359,-54.27349
2021-11-30 13:14:01+00:00,175.0,18.97,170.0,24.11,12.41,47.59359,-54.27349
2021-11-30 13:24:01+00:00,178.0,18.41,182.0,22.45,12.41,47.59359,-54.27349
2021-11-30 13:34:01+00:00,174.0,19.81,176.0,23.35,12.41,47.59359,-54.27349
2021-11-30 13:44:01+00:00,176.0,18.94,179.0,22.23,12.41,47.59359,-54.27349
2021-11-30 13:54:01+00:00,179.0,19.08,180.0,24.05,12.41,47.59359,-54.27349
2021-11-30 14:04:01+00:00,178.0,22.58,179.0,27.23,12.41,47.59359,-54.27349
2021-11-30 14:14:01+00:00,178.0,18.64,182.0,23.11,12.49,47.59359,-54.27349
2021-11-30 14:24:01+00:00,177.0,17.81,179.0,22.85,12.49,47.59359,-54.27349
2021-11-30 14:34:01+00:00,178.0,20.5,175.0,23.56,12.49,47.59359,-54.27349
2021-11-30 14:44:01+00:00,181.0,19.2,176.0,23.08,12.49,47.59359,-54.27349
2021-11-30 14:54:01+00:00,205.0,15.72,207.0,17.58,12.49,47.59359,-54.27349
2021-11-30 15:04:01+00:00,211.0,14.63,207.0,16.24,12.49,47.59359,-54.27349
2021-11-30 15:14:01+00:00,211.0,13.85,209.0,15.62,12.41,47.59359,-54.27349
2021-11-30 15:24:01+00:00,208.0,11.32,211.0,13.07,12.41,47.59359,-54.27349
2021-11-30 15:34:01+00:00,200.0,9.78,215.0,11.15,12.41,47.59359,-54.27349
2021-11-30 15:44:01+00:00,177.0,12.05,173.0,13.95,12.41,47.59359,-54.27349
2021-11-30 15:54:01+00:00,178.0,15.36,174.0,18.24,12.41,47.59359,-54.27349
2021-11-30 16:04:01+00:00,190.0,14.16,194.0,16.46,12.41,47.59359,-54.27349
2021-11-30 16:14:01+00:00,173.0,15.77,174.0,18.89,12.49,47.59359,-54.27349
2021-11-30 16:24:01+00:00,185.0,17.16,181.0,22.23,12.49,47.59359,-54.27349
2021-11-30 16:34:01+00:00,192.0,17.76,196.0,22.42,12.49,47.59359,-54.27349
2021-11-30 16:44:01+00:00,188.0,15.12,194.0,17.84,12.49,47.59359,-54.27349
2021-11-30 16:54:01+00:00,193.0,13.8,189.0,16.17,12.49,47.59359,-54.27349
2021-11-30 17:04:01+00:00,197.0,15.32,192.0,18.66,12.49,47.59359,-54.27349
2021-11-30 17:14:00+00:00,200.0,13.78,207.0,16.71,12.65,47.59359,-54.27349
2021-11-30 17:24:00+00:00,197.0,14.35,201.0,17.12,12.65,47.59359,-54.27349
2021-11-30 17:34:00+00:00,192.0,13.57,194.0,15.75,12.65,47.59359,-54.27349
2021-11-30 17:44:00+00:00,194.0,12.16,198.0,13.86,12.65,47.59359,-54.27349
2021-11-30 17:54:00+00:00,200.0,10.88,202.0,12.42,12.65,47.59359,-54.27349
2021-11-30 18:04:00+00:00,207.0,9.78,209.0,10.73,12.65,47.59359,-54.27349
2021-11-30 18:14:01+00:00,180.0,11.56,194.0,13.12,12.97,47.59359,-54.27349
2021-11-30 18:24:01+00:00,179.0,11.26,182.0,12.57,12.97,47.59359,-54.27349
2021-11-30 18:34:01+00:00,187.0,13.95,194.0,15.99,12.97,47.59359,-54.27349
2021-11-30 18:44:01+00:00,198.0,16.43,200.0,20.04,12.97,47.59359,-54.27349
2021-11-30 18:54:01+00:00,202.0,18.24,202.0,23.16,12.97,47.59359,-54.27349
2021-11-30 19:04:01+00:00,213.0,19.0,214.0,22.31,12.97,47.59359,-54.27349
2021-11-30 19:14:01+00:00,229.0,14.52,243.0,17.92,12.65,47.59359,-54.27349
2021-11-30 19:24:01+00:00,236.0,16.75,240.0,21.2,12.65,47.59359,-54.27349
2021-11-30 19:34:01+00:00,245.0,14.8,245.0,17.32,12.65,47.59359,-54.27349
2021-11-30 19:44:01+00:00,243.0,15.63,246.0,17.86,12.65,47.59359,-54.27349
2021-11-30 19:54:01+00:00,244.0,14.57,248.0,17.04,12.65,47.59359,-54.27349
2021-11-30 20:04:01+00:00,241.0,19.26,242.0,23.71,12.65,47.59359,-54.27349
2021-11-30 20:14:01+00:00,239.0,14.36,238.0,17.46,12.41,47.59359,-54.27349
2021-11-30 20:24:01+00:00,249.0,20.29,246.0,23.55,12.41,47.59359,-54.27349
2021-11-30 20:34:01+00:00,237.0,16.14,248.0,22.9,12.41,47.59359,-54.27349
2021-11-30 20:44:01+00:00,228.0,16.89,226.0,20.21,12.41,47.59359,-54.27349
2021-11-30 20:54:01+00:00,231.0,16.48,231.0,20.0,12.41,47.59359,-54.27349
2021-11-30 21:04:01+00:00,234.0,13.69,236.0,15.93,12.41,47.59359,-54.27349
2021-11-30 21:14:01+00:00,232.0,16.48,246.0,22.54,12.41,47.59359,-54.27349
2021-11-30 21:24:01+00:00,233.0,13.42,245.0,16.1,12.41,47.59359,-54.27349
2021-11-30 21:34:01+00:00,230.0,15.95,222.0,17.81,12.41,47.59359,-54.27349
2021-11-30 21:44:01+00:00,229.0,15.92,243.0,23.91,12.41,47.59359,-54.27349
2021-11-30 21:54:01+00:00,244.0,13.7,251.0,17.19,12.41,47.59359,-54.27349
2021-11-30 22:04:01+00:00,245.0,17.17,256.0,22.04,12.41,47.59359,-54.27349
2021-11-30 22:14:01+00:00,237.0,14.64,235.0,16.72,12.41,47.59359,-54.27349
2021-11-30 22:24:01+00:00,233.0,14.66,230.0,16.94,12.41,47.59359,-54.27349
2021-11-30 22:34:01+00:00,233.0,14.8,236.0,19.35,12.41,47.59359,-54.27349
2021-11-30 22:44:01+00:00,245.0,14.39,241.0,19.65,12.41,47.59359,-54.27349
2021-11-30 22:54:01+00:00,245.0,13.84,247.0,16.91,12.41,47.59359,-54.27349
2021-11-30 23:04:01+00:00,248.0,15.21,248.0,17.29,12.41,47.59359,-54.27349
